EHI
0 0 0 0 0 0 0 0 0 0 0 0 0 0 0 0 0 0 0 0 0 0 0 0 0 0 0 0 0 0 0 0 0 0 0 0 0 0 0 0 0 0 0
0 0 0 0 0 0 0 0 0 0 0 0 0 0 0 0 0 0 0 0 0 0 0 0 0 0 0 0 0 0 0 0 0 0 0 0 0 0 0 0 0 0 0
0 0 0 0 0 0 0 0 0 0 0 0 0 0 0 0 0 0 0 0 0 0 0 0 0 0 0 0 0 0 0 0 0 0 0 0 0 0 0 0 0 0 0
0 0 0 0 0 0 0 0 0 0 0 0 0 0 0 0 0 0 0 0 0 0 0 0 0 0 0 0 0 0 0 0 0 0 0 0 0 0 0 0 0 0 0
0 0 0 0 0 0 0 0 0 0 0 0 0 0 0 0 0 0 0 0 0 0 0 0 0 0 0 0 0 0 0 0 0 0 0 0 0 0 0 0 0 0 0
0 0 0 0 0 0 0 0 0 0 0 0 0 0 0 0 0 0 0 0 0 0 0 0 0 0 0 0 0 0 0 0 0 0 0 0 0 0 0 0 0 0 0
0 0 0 0 0 0 0 0 0 0 0 0 0 0 0 0 0 0 0 0 0 0 0 0 0 0 0 0 0 0 0 0 0 0 0 0 0 0 0 0 0 0 0
0 0 0 0 0 0 0 0 0 0 0 0 0 0 0 0 0 0 0 0 0 0 0 0 0 0 0 0 0 0 0 0 0 0 0 0 0 0 0 0 0 0 0
0 0 0 0 0 0 0 0 0 0 0 0 0 0 0 0 0 0 0 0 0 0 0 0 0 0 0 0 0 0 0 0 0 0 0 0 0 0 0 0 0 0 0
0 0 0 0 0 0 0 0 0 0 0 0 0 0 0 0 0 0 0 0 0 0 0 0 0 0 0 0 0 0 0 0 0 0 0 0 0 0 0 0 0 0 0
0 0 0 0 0 0 0 0 0 0 0 0 0 0 0 0 0 0 0 0 0 0 0 0 0 0 0 0 0 0 0 0 0 0 0 0 0 0 0 0 0 0 0
0 0 0 0 0 0 0 0 0 0 0 0 0 0 0 0 0 0 0 0 0 0 0 0 0 0 0 0 0 0 0 0 0 0 0 0 0 0 0 0 0 0 0
0 0 0 0 0 0 0 0 0 0 0 0 0 0 0 0 0 0 0 0 0 0 0 0 0 0 0 0 0 0 0 0 0 0 0 0 0 0 0 0 0 0 0
0 0 0 0 0 0 0 0 0 0 0 0 0 0 0 0 0 0 0 0 0 0 0 0 0 0 0 0 0 0 0 0 0 0 0 0 0 0 0 0 0 0 0
0 0 0 0 0 0 0 0 0 0 0 0 0 0 0 0 0 0 0 0 0 0 0 0 0 0 0 0 0 0 0 0 0 0 0 0 0 0 0 0 0 0 0
0 0 0 0 0 0 0 0 0 0 0 0 0 0 0 0 0 0 0 0 0 0 0 0 0 0 0 0 0 0 0 0 0 0 0 0 0 0 0 0 0 0 0
0 0 0 0 0 0 0 0 0 0 0 0 0 0 0 0 0 0 0 0 0 0 0 0 0 0 0 0 0 0 0 0 0 0 0 0 0 0 0 0 0 0 0
0 0 0 0 0 0 0 0 0 0 0 0 0 0 0 0 0 0 0 0 0 0 0 0 0 0 0 0 0 0 0 0 0 0 0 0 0 0 0 0 0 0 0
0 0 0 0 0 0 0 0 0 0 0 0 0 0 0 0 0 0 0 0 0 0 0 0 0 0 0 0 0 0 0 0 0 0 0 0 0 0 0 0 0 0 0
0 0 0 0 0 0 0 0 0 0 0 0 0 0 0 0 0 0 0 0 0 0 0 0 0 0 0 0 0 0 0 0 0 0 0 0 0 0 0 0 0 0 0
0 0 0 0 0 0 0 0 0 0 0 0 0 0 0 0 0 0 0 0 0 0 0 0 0 0 0 0 0 0 0 0 0 0 0 0 0 0 0 0 0 0 0
0 0 0 0 0 0 0 0 0 0 0 0 0 0 0 0 0 0 0 0 0 0 0 0 0 0 0 0 0 0 0 0 0 0 0 0 0 0 0 0 0 0 0
0 0 0 0 0 0 0 0 0 0 0 0 0 0 0 0 0 0 0 0 0 0 0 0 0 0 0 0 0 0 0 0 0 0 0 0 0 0 0 0 0 0 0
0 0 0 0 0 0 0 0 0 0 0 0 0 0 0 0 0 0 0 0 0 0 0 0 0 0 0 0 0 0 0 0 0 0 0 0 0 0 0 0 0 0 0
0 0 0 0 0 0 0 0 0 0 0 0 0 0 0 0 0 0 0 0 0 0 0 0 0 0 0 0 0 0 0 0 0 0 0 0 0 0 0 0 0 0 0
0 0 0 0 0 0 0 0 0 0 0 0 0 0 0 0 0 0 0 0 0 0 0 0 0 0 0 0 0 0 0 0 0 0 0 0 0 0 0 0 0 0 0
Wind_Speed
0 2 2 2 2 2 2 2 2 1 1 1 0 0 0 0 0 0 1 1 1 0 0 1 1 2 3 3 3 3 4 3 3 3 2 2 2 2 2 1 2 2 2
1 2 2 3 3 3 2 1 2 2 1 1 1 1 1 1 1 0 0 0 1 1 0 1 1 1 2 3 3 3 3 2 2 3 3 2 0 0 1 1 2 2 2
1 0 1 2 2 3 3 2 2 2 2 2 1 1 1 1 0 0 0 0 0 0 0 0 1 1 2 4 4 4 4 3 2 2 3 3 3 1 0 0 1 1 2
0 0 1 1 2 3 3 3 2 2 2 1 1 0 1 1 1 1 1 0 0 0 0 0 1 1 2 3 4 3 3 5 4 2 1 1 3 3 2 1 0 1 1
0 0 1 1 2 2 3 3 2 2 2 2 1 1 1 1 1 1 1 1 0 0 0 0 0 1 1 3 3 3 4 4 4 3 2 1 1 1 3 3 2 1 1
1 1 2 2 2 2 2 3 3 3 3 2 1 1 1 1 1 1 1 1 1 0 0 0 0 0 1 2 2 3 5 4 4 3 3 3 3 2 2 3 3 2 2
1 1 1 2 2 2 2 2 3 3 3 3 2 2 2 2 3 2 2 2 1 1 1 1 0 0 1 1 2 2 3 4 5 5 3 3 3 2 2 3 3 2 1
1 1 1 1 1 1 2 2 3 3 3 3 3 3 2 1 1 1 2 2 2 1 2 1 1 1 1 1 2 2 2 3 4 5 4 3 3 2 3 3 4 3 1
1 1 1 1 1 1 1 2 3 3 3 3 3 3 2 2 1 1 1 1 1 1 2 2 2 2 1 1 1 2 2 3 3 4 4 3 3 3 2 3 4 5 4
2 2 2 2 1 1 2 2 2 3 3 3 3 3 3 2 1 1 1 1 1 1 2 2 2 2 2 2 2 1 2 3 3 3 4 4 3 3 3 3 3 3 4
2 2 2 2 2 2 2 2 2 3 3 3 3 3 3 2 2 1 1 1 1 1 2 2 2 2 2 2 2 2 2 3 3 4 5 5 4 3 3 3 3 3 3
2 2 2 2 2 2 2 2 2 3 3 3 3 3 3 2 2 2 1 1 1 1 1 2 2 2 2 2 3 3 3 3 4 4 4 5 4 5 4 4 4 3 3
2 2 2 2 2 2 2 2 2 3 3 3 3 3 3 2 2 2 2 1 1 1 1 1 2 2 2 2 3 3 3 4 4 4 5 5 5 5 4 4 4 3 3
2 2 2 2 2 2 2 2 2 3 3 3 3 3 3 3 2 2 2 2 2 1 1 1 1 2 2 2 2 2 3 3 3 3 4 5 6 6 6 5 5 4 4
3 3 3 3 2 2 2 2 2 2 3 3 3 4 3 3 2 2 2 2 2 2 2 1 1 1 2 2 2 3 3 3 3 3 4 4 5 6 6 5 5 5 5
4 4 5 4 3 3 3 3 3 3 3 3 3 4 3 3 3 3 2 2 2 2 2 2 2 2 2 3 4 3 3 3 4 4 4 4 5 6 8 8 8 8 8
5 5 5 4 4 3 3 3 3 3 3 3 3 4 3 3 3 3 3 3 3 2 2 2 2 2 3 4 5 4 3 3 3 4 4 3 4 5 4 6 7 7 8
6 6 5 4 3 3 3 3 3 3 3 3 3 4 4 4 4 3 3 3 3 3 3 3 3 2 3 4 5 5 4 3 4 3 4 4 4 4 5 4 4 4 5
5 5 4 3 2 2 2 2 2 3 3 3 3 4 4 4 4 4 4 3 3 3 3 3 3 3 4 5 6 5 3 3 4 4 4 4 4 6 6 5 4 4 4
4 3 2 1 1 1 1 1 2 3 3 4 4 4 4 4 4 4 4 4 4 4 4 4 3 4 4 6 6 6 3 3 3 3 4 5 6 7 8 5 5 5 4
4 3 2 2 2 1 1 2 3 3 4 4 4 4 4 4 4 4 4 4 4 4 4 4 4 4 5 6 7 7 3 3 3 3 3 3 7 8 9 7 5 6 4
3 3 2 3 2 1 1 3 4 4 3 4 4 4 4 4 4 4 4 4 4 4 4 4 5 4 4 5 6 7 6 5 4 3 3 3 6 7 8 6 6 7 5
3 2 2 3 3 2 2 3 4 3 3 3 4 4 4 4 3 3 4 3 3 3 4 4 4 3 3 3 6 7 7 6 4 3 5 5 6 6 6 7 7 6 4
3 3 2 3 4 3 3 3 4 3 3 4 4 3 3 3 3 3 3 3 3 3 4 4 4 4 3 3 2 2 3 4 4 3 4 5 5 5 5 5 4 4 4
3 2 2 3 4 4 4 4 3 3 3 4 3 3 3 3 3 3 3 3 3 4 4 4 4 4 4 5 6 4 3 2 3 2 2 2 2 2 3 3 3 3 3
3 3 3 4 4 4 4 4 3 3 3 3 3 3 3 3 3 3 3 5 6 7 8 7 6 5 6 7 7 7 6 5 5 3 2 2 2 3 3 3 3 3 4
Wind_Direction
304 54 39 37 21 6 353 352 345 354 19 357 332 285 88 345 19 24 18 21 19 337 115 123 157 154 147 150 142 136 127 119 128 107 90 72 79 85 76 71 91 94 102
4 36 29 22 7 348 339 345 342 333 318 312 303 255 195 220 215 244 27 51 48 18 25 144 165 181 156 153 153 141 131 132 143 134 133 145 98 12 101 104 113 117 112
212 17 15 8 359 349 337 328 330 332 344 344 359 32 42 33 5 326 354 351 336 69 48 252 195 197 173 172 172 162 147 155 174 146 146 156 180 162 165 109 104 120 122
6 50 24 357 352 344 339 340 345 348 350 354 340 202 214 229 242 239 207 216 289 357 78 328 233 205 186 178 182 174 159 155 171 183 176 153 138 150 164 239 219 129 136
260 46 34 360 8 359 353 344 347 344 343 342 313 271 250 245 241 220 165 155 162 28 41 151 197 211 191 183 181 175 166 167 170 173 167 151 108 148 152 175 201 244 225
5 24 38 28 17 10 5 360 351 341 339 335 319 271 248 244 225 206 189 183 181 213 294 220 195 216 216 182 184 184 178 176 176 178 170 161 163 179 163 166 180 202 233
52 24 27 359 350 360 359 358 354 338 334 332 321 300 272 240 225 210 200 189 186 209 223 210 220 235 241 217 179 179 189 185 183 189 187 183 187 171 166 155 167 185 221
13 341 324 331 329 343 349 346 347 343 335 331 323 318 306 263 238 231 219 201 204 205 208 206 213 227 227 228 198 178 195 199 196 195 190 191 196 183 177 167 159 166 213
339 321 327 333 326 325 324 331 337 340 335 329 325 320 321 308 288 259 246 219 197 195 191 194 201 212 216 218 214 197 197 203 203 201 199 197 195 190 194 182 173 169 186
318 322 332 342 345 347 343 345 340 335 335 336 329 323 327 320 310 299 265 248 217 191 188 193 200 207 209 211 211 206 206 203 206 204 203 204 201 195 193 192 192 189 183
299 309 322 335 349 1 4 350 342 343 342 338 332 328 327 326 323 308 296 287 272 226 209 201 202 212 217 212 205 212 209 211 215 212 206 208 199 197 197 196 195 197 184
306 316 325 344 350 344 344 342 340 342 337 335 330 321 318 319 320 310 302 294 276 260 235 216 205 217 225 220 210 214 215 214 217 219 211 210 203 199 197 197 202 201 198
311 315 327 331 326 322 325 328 333 333 333 335 329 319 317 315 313 313 312 303 284 278 260 228 216 223 230 231 228 220 220 219 222 222 220 213 201 205 200 197 202 202 202
299 308 302 304 308 308 307 315 321 329 327 329 323 311 308 306 304 312 312 311 305 282 264 244 237 235 237 241 238 229 227 224 222 223 227 220 203 203 200 204 203 197 193
306 305 295 290 296 304 305 305 308 319 321 321 315 309 313 312 310 308 310 310 305 291 276 260 246 239 237 238 234 229 231 228 223 226 228 223 212 209 207 206 199 197 193
294 298 301 300 295 295 298 300 302 310 312 307 305 313 321 323 322 317 312 307 295 292 289 275 261 250 250 260 252 241 239 238 229 231 232 224 216 214 218 216 209 204 201
297 292 285 281 282 280 287 281 287 302 302 303 312 317 318 321 324 323 322 313 303 293 285 276 265 262 266 270 264 255 249 245 238 233 231 231 228 218 214 219 216 217 219
299 294 289 287 286 286 294 295 297 292 293 299 307 315 318 316 318 319 314 312 310 299 287 282 274 269 275 277 274 268 250 243 240 237 229 226 228 221 208 204 211 218 222
292 288 280 274 276 277 286 293 295 296 295 295 299 305 307 308 310 306 303 305 301 293 285 279 269 266 273 272 269 269 258 251 247 239 232 222 220 226 217 208 210 218 229
303 303 309 315 298 290 289 282 287 289 286 288 292 297 298 295 294 294 296 297 292 285 283 281 270 264 266 269 267 263 253 255 256 243 232 229 227 227 221 211 203 209 213
320 328 333 317 292 294 290 272 275 271 280 290 292 293 294 290 288 291 294 292 290 291 287 284 277 267 267 270 265 255 246 238 249 246 240 235 234 233 227 216 210 216 205
326 334 329 313 311 304 285 280 274 282 295 295 292 291 290 288 291 290 291 291 290 289 287 283 276 268 267 269 264 257 249 243 237 240 243 239 235 238 235 229 220 221 216
307 310 303 303 309 304 284 279 288 299 295 290 288 290 289 286 286 282 283 283 278 275 277 280 279 277 272 273 269 270 262 253 246 240 244 249 243 244 240 236 230 225 214
297 302 304 303 304 305 296 286 297 298 289 285 289 292 290 291 290 285 278 274 271 271 272 273 280 281 280 277 273 268 265 258 253 253 251 253 254 249 239 233 227 218 211
298 298 289 290 294 304 304 306 307 301 292 287 285 288 287 286 285 282 275 278 271 274 276 269 265 273 274 273 276 270 260 253 250 258 254 246 237 236 228 216 207 201 205
300 303 299 297 300 304 302 306 304 293 287 288 285 283 283 282 281 284 294 293 293 297 293 285 277 275 278 285 276 271 269 269 265 258 239 235 234 232 229 216 206 202 205